Location: Ottawa
(45.4170°N, 75.7000°W)
Time: 19:22:53
(UTC-04:00)

ISS - Visible Passes

Search period start: 27 May 2018 00:00
Search period end: 06 June 2018 00:00
Orbit: 402 x 407 km, 51.6° (Epoch: 28 May)

Date Brightness Start Highest point End Pass type
(mag) Time Alt. Az. Time Alt. Az. Time Alt. Az.
27 May -2.6 00:34:03 10° NW 00:36:54 43° N 00:36:54 43° N visible
27 May -1.7 22:04:58 10° WNW 22:07:49 27° N 22:10:42 10° NE visible
27 May -2.2 23:41:52 10° NW 23:44:54 34° NNE 23:46:13 24° ENE visible
28 May -1.2 01:18:18 10° WNW 01:18:50 14° WNW 01:18:50 14° WNW visible
28 May -1.9 21:12:28 10° WNW 21:15:26 31° NNW 21:18:25 10° NE visible
28 May -1.9 22:49:36 10° NW 22:52:31 28° N 22:55:25 10° ENE visible
29 May -2.6 00:26:04 10° WNW 00:28:12 37° NW 00:28:12 37° NW visible
29 May -1.7 21:57:17 10° WNW 22:00:06 26° N 22:02:56 10° ENE visible
29 May -3.1 23:33:52 10° NW 23:37:04 51° NNE 23:37:36 45° ENE visible
30 May -2.5 22:41:39 10° NW 22:44:43 37° NNE 22:47:01 15° E visible
31 May -2.0 00:18:06 10° WNW 00:19:39 24° W 00:19:39 24° W visible
31 May -2.1 21:49:23 10° NW 21:52:20 30° N 21:55:16 10° ENE visible
31 May -4.0 23:25:48 10° WNW 23:29:06 87° SSW 23:29:06 87° SSW visible
01 Jun -3.4 22:33:33 10° WNW 22:36:47 58° NNE 22:38:34 24° E visible
02 Jun -1.4 00:10:23 10° W 00:11:12 15° W 00:11:12 15° W visible
02 Jun -2.7 21:41:18 10° NW 21:44:26 40° NNE 21:47:33 10° E visible
02 Jun -3.1 23:17:49 10° WNW 23:20:41 40° SW 23:20:41 40° SW visible
03 Jun -3.9 22:25:26 10° WNW 22:28:42 73° SSW 22:30:12 29° SE visible
04 Jun -3.6 21:33:07 10° WNW 21:36:24 69° NNE 21:39:39 10° ESE visible
04 Jun -2.0 23:10:10 10° W 23:12:23 19° SW 23:12:23 19° SW visible
05 Jun -2.8 22:17:26 10° WNW 22:20:27 33° SW 22:21:58 21° S visible
